EHI
1 7 20 32 28 12 1 0 0 0 0 0 0 1 1 1 0 0 1 2 3 1 1 2 3 3 3 3 2 1 0 0 0 0 0 0 0 0 0 0 0 0 0 1 0 0 0 0 0
4 13 29 34 22 7 0 0 0 0 0 0 0 0 0 0 0 0 0 1 1 1 1 3 3 3 2 3 2 1 0 0 0 0 0 0 1 1 0 0 0 0 1 1 1 0 0 0 0
14 26 36 30 13 2 0 0 0 0 0 0 0 0 0 0 0 0 0 0 0 0 1 2 2 1 1 1 1 1 0 0 0 0 0 0 1 2 1 0 0 0 1 2 1 0 0 0 0
32 36 33 18 5 0 0 0 0 0 0 0 0 0 0 0 0 0 0 0 1 1 1 2 2 1 0 0 0 0 0 0 0 0 0 0 1 1 1 0 0 0 1 2 2 0 0 0 0
39 33 21 7 1 0 0 0 0 0 0 0 0 0 0 0 1 1 1 1 2 2 1 1 3 2 1 0 0 0 0 0 0 0 0 0 0 0 1 1 0 0 1 1 1 0 0 0 0
33 24 10 2 0 0 0 0 0 0 0 0 0 0 0 0 1 1 2 2 2 3 2 1 3 3 2 1 1 0 0 0 0 0 0 0 0 0 1 1 0 0 0 1 1 1 1 0 0
25 17 5 0 0 0 0 0 0 0 0 0 0 0 0 1 2 2 2 1 2 3 2 1 1 3 3 3 2 1 0 0 0 0 0 0 0 1 1 1 0 0 1 1 2 2 1 0 0
17 10 3 0 0 0 0 0 0 0 0 0 0 1 1 2 2 2 1 0 1 3 3 1 1 1 2 3 4 3 1 0 0 0 1 1 0 1 2 1 0 0 1 2 2 2 1 2 2
8 4 1 0 0 0 0 0 0 0 0 1 1 3 3 3 2 1 0 0 1 2 2 2 1 1 1 2 3 4 3 2 0 0 1 1 0 0 1 2 2 1 0 1 3 2 1 3 6
3 1 0 0 0 0 0 0 0 0 1 3 5 6 5 3 2 0 0 1 1 1 1 1 2 1 1 1 2 3 5 4 1 0 1 1 0 0 1 2 4 3 1 2 4 3 2 3 5
1 0 0 0 0 0 0 0 0 0 2 7 10 9 6 4 2 2 2 3 2 1 2 2 2 3 3 2 2 3 5 5 2 1 1 1 0 0 1 3 3 2 1 3 5 4 3 3 4
0 0 0 0 0 0 0 0 0 0 2 7 13 11 7 4 3 4 5 5 5 4 4 4 5 9 11 8 4 2 4 4 3 2 1 1 0 0 1 2 2 1 1 3 4 4 4 6 7
0 0 0 0 0 0 0 0 0 0 2 8 12 10 6 4 5 6 6 6 7 8 7 7 10 16 18 14 7 2 2 3 4 4 3 1 0 0 0 1 1 1 2 4 4 4 5 8 10
0 0 0 0 0 0 0 0 0 1 4 9 12 9 6 6 7 8 8 8 9 10 10 11 14 17 17 13 7 2 2 4 4 5 4 3 1 1 0 0 0 0 2 5 7 7 7 8 9
0 0 0 0 0 0 0 1 1 2 4 8 12 11 9 9 9 10 10 10 12 15 15 14 14 15 14 10 5 2 2 3 3 5 6 6 4 3 1 0 0 0 3 8 12 12 9 7 6
0 0 0 0 0 0 1 2 3 4 4 6 10 13 13 13 12 11 12 13 17 21 21 16 12 13 14 10 5 2 2 2 3 5 8 8 7 5 2 1 0 2 6 10 12 12 10 7 6
0 0 0 0 0 0 1 4 6 5 4 5 9 14 18 19 17 14 14 16 22 27 28 22 16 15 15 11 7 4 5 5 4 7 8 8 7 5 3 1 2 5 8 8 7 8 9 8 6
0 0 0 0 0 0 2 6 8 7 5 6 9 14 21 25 23 19 17 18 24 31 34 30 24 21 17 13 10 7 7 7 7 8 10 8 6 4 3 2 3 5 6 5 5 8 9 7 6
0 0 0 0 0 0 2 6 9 9 8 9 12 15 21 28 30 27 24 22 28 38 42 37 32 27 21 16 13 10 9 8 8 9 12 10 6 4 3 2 2 3 4 7 9 8 7 5 4
0 0 0 0 0 0 2 5 9 11 11 12 15 17 21 29 37 40 36 33 37 47 49 44 39 33 25 19 15 13 11 10 8 10 14 12 8 6 5 3 2 2 5 10 13 11 7 5 4
0 0 0 0 0 0 1 4 9 11 12 13 16 19 21 30 44 51 49 43 45 52 53 47 45 41 31 23 17 14 13 12 10 12 16 16 14 12 10 8 6 5 7 12 15 14 10 7 7
0 0 0 0 0 0 0 3 7 10 11 12 14 18 23 33 47 56 57 51 49 53 53 52 54 51 41 31 23 19 17 14 13 16 20 22 21 19 17 15 14 12 12 14 16 15 10 7 7
0 0 0 0 0 0 0 1 4 6 7 8 12 18 26 34 45 55 60 56 52 53 56 59 63 62 55 42 33 28 24 20 19 22 26 27 25 23 21 20 20 21 18 16 16 14 10 7 6
0 0 0 0 0 0 0 1 2 4 4 6 10 18 25 33 41 51 59 61 57 57 62 66 70 70 64 53 44 38 33 28 25 27 29 26 23 22 22 22 24 25 23 20 17 13 11 9 8
0 0 0 0 0 0 0 0 1 2 3 4 8 15 23 31 38 46 56 61 62 63 67 71 75 74 69 61 52 46 42 35 30 29 28 24 20 22 25 29 31 30 26 23 19 16 15 15 15
0 0 0 0 0 0 0 0 0 1 2 4 8 13 21 27 33 42 51 59 62 64 68 73 77 76 72 66 59 53 48 41 34 30 26 23 21 24 32 39 40 36 29 25 24 22 20 21 22
0 0 0 0 0 0 0 0 1 3 5 6 9 14 19 24 29 36 47 55 60 61 62 69 75 77 74 70 63 58 53 46 39 33 28 25 24 28 38 46 45 39 33 30 29 27 25 26 27
0 0 0 0 0 0 0 0 1 5 8 9 11 15 19 23 27 34 42 51 57 57 58 63 70 74 74 71 64 58 55 51 42 36 32 30 29 32 41 48 45 40 37 35 33 31 29 29 28
0 0 0 0 0 0 0 0 2 5 8 10 13 16 20 24 30 36 42 48 54 56 57 61 66 70 72 70 65 60 58 54 46 41 38 36 35 38 43 47 45 41 39 37 36 33 31 30 28
0 0 0 0 0 0 0 1 2 5 7 9 12 17 21 25 32 39 44 48 53 56 57 60 64 67 70 70 67 63 60 56 51 46 42 40 39 40 43 46 45 41 40 39 37 34 31 30 28
Wind_Speed
9 11 9 6 5 1 11 14 14 13 13 14 13 13 16 15 11 10 9 11 14 14 14 14 13 14 13 13 13 14 14 14 14 14 13 13 13 13 13 13 13 13 12 12 12 12 12 12 12
9 11 7 5 2 6 12 13 14 13 12 12 13 15 16 15 13 11 9 11 14 14 13 13 14 14 13 13 13 13 14 14 14 13 13 13 13 13 12 12 12 12 12 12 12 12 12 11 11
12 12 6 3 5 10 13 12 13 12 11 11 14 15 12 11 11 9 11 12 13 14 14 14 14 14 13 13 13 12 13 13 13 13 13 12 12 12 12 11 11 11 11 11 12 11 11 10 9
8 7 5 0 12 14 13 11 11 12 12 11 13 13 12 11 11 13 14 13 13 14 14 13 14 14 13 12 12 12 12 12 12 11 11 11 11 11 11 11 10 10 10 10 10 11 10 9 8
8 4 2 6 13 13 12 11 11 12 12 14 16 15 13 14 16 15 14 13 13 13 13 13 14 14 13 12 12 12 11 11 11 11 11 10 10 10 10 10 10 10 9 10 10 10 9 8 7
5 2 0 8 12 12 11 11 12 13 13 14 16 15 12 13 14 13 13 12 12 13 13 13 14 14 12 12 11 11 11 11 11 10 10 9 9 9 9 9 9 9 9 9 9 9 9 7 6
6 3 3 10 10 11 11 11 11 11 11 12 13 14 12 13 13 13 12 11 11 12 12 10 11 11 11 11 11 10 10 10 10 9 9 9 9 9 9 9 9 9 9 9 9 9 8 7 6
5 3 3 9 10 10 11 11 10 11 11 11 11 11 12 13 13 13 12 11 11 10 10 10 10 9 9 9 10 10 9 9 8 8 8 8 8 9 9 9 9 9 9 8 8 8 7 7 6
5 3 4 8 9 9 10 10 10 11 11 12 13 15 16 16 15 13 12 11 10 10 8 9 9 8 8 8 9 8 9 8 8 7 8 8 6 7 7 8 10 9 9 8 8 8 7 7 7
2 2 7 8 9 9 8 9 9 11 11 14 16 17 18 15 13 13 12 12 11 10 9 7 8 8 7 6 7 5 6 6 4 4 6 4 3 4 6 9 9 10 9 8 8 8 7 6 4
2 4 6 8 9 9 8 7 7 10 10 13 17 18 17 15 13 12 12 11 11 10 8 8 8 7 6 5 5 3 3 4 3 3 4 3 4 4 5 4 5 5 7 5 6 6 5 4 3
2 4 4 7 7 8 8 8 8 9 11 14 17 18 16 15 13 12 11 11 10 10 8 7 7 6 4 4 3 3 3 3 3 3 2 3 2 3 4 3 4 4 3 3 3 3 4 3 2
1 3 4 5 6 7 7 8 8 12 13 16 17 17 15 14 13 11 11 11 11 10 9 7 7 5 4 2 1 3 3 3 4 3 2 3 3 3 3 2 2 2 2 3 2 2 2 2 1
2 1 2 5 6 7 7 7 7 11 13 15 16 15 15 13 13 12 11 11 11 9 9 8 8 7 4 2 1 1 2 2 4 3 3 3 3 3 3 3 2 1 1 2 1 1 1 1 1
4 3 1 3 5 6 5 5 8 11 13 14 15 14 14 13 12 12 11 11 11 9 9 8 8 8 5 4 2 2 2 3 3 3 4 3 3 3 2 2 2 2 2 2 1 1 1 1 1
6 6 4 3 4 5 3 4 11 12 12 12 13 14 13 12 13 12 12 11 11 10 9 7 8 9 6 4 2 2 2 3 3 3 4 3 3 3 2 2 2 2 2 2 2 1 1 0 1
8 6 5 4 5 5 4 4 9 11 12 10 11 13 14 13 12 12 13 12 11 10 9 7 6 7 7 5 2 1 2 2 3 3 3 3 3 2 1 1 2 1 1 1 1 2 1 0 1
8 8 5 3 3 2 2 5 10 12 12 11 11 12 13 14 13 12 13 13 12 11 9 8 6 6 6 5 3 1 2 2 2 3 3 4 3 3 1 2 2 1 1 1 1 1 0 1 1
10 10 7 2 1 1 3 5 9 10 12 13 13 13 14 14 15 13 13 13 13 11 10 8 7 6 5 4 4 3 2 2 2 3 4 4 3 3 2 1 2 1 1 1 1 1 1 1 1
11 11 8 4 2 5 6 7 7 10 11 12 13 13 14 15 15 15 14 14 13 12 11 10 8 8 6 4 3 3 3 3 3 2 4 4 4 3 3 2 2 2 1 1 1 1 1 2 2
12 11 9 8 8 8 8 7 7 10 10 11 12 13 14 15 17 16 14 14 14 13 13 10 9 8 7 6 4 3 3 2 2 3 4 4 4 4 2 2 1 1 1 2 2 2 2 2 2
11 10 10 10 10 8 9 7 7 9 10 11 12 13 14 14 16 16 15 15 15 14 13 10 9 8 8 7 6 6 4 4 4 3 4 4 4 4 4 2 2 1 1 1 2 2 2 2 2
12 11 10 12 11 12 11 10 6 8 9 10 11 12 13 14 15 16 16 15 15 14 13 12 10 9 8 7 6 5 5 4 3 4 4 4 4 4 4 4 3 2 1 1 1 1 1 1 2
11 12 13 12 11 12 12 11 6 5 6 8 10 11 11 13 15 14 14 13 13 14 13 13 11 10 9 9 7 6 5 5 4 5 5 5 4 4 4 4 3 3 2 2 2 2 1 1 2
10 11 9 9 9 9 9 9 2 4 5 6 8 9 9 11 12 13 13 13 13 14 14 14 13 11 10 9 8 7 6 5 5 5 5 4 4 4 4 4 4 3 2 2 1 2 2 1 2
11 13 11 11 9 8 8 7 2 5 5 6 7 9 9 10 11 12 13 12 11 12 13 13 13 12 12 11 8 7 6 6 5 5 4 4 3 4 5 5 4 4 3 3 2 2 2 2 3
12 12 13 13 13 12 8 6 3 5 7 7 7 8 8 8 10 10 11 11 11 11 11 12 13 12 12 11 9 7 7 6 5 5 5 3 3 3 5 5 4 4 3 2 2 2 2 2 3
12 11 9 9 9 11 10 8 3 5 4 4 5 5 5 6 6 8 10 11 11 11 11 11 11 12 11 10 9 9 8 7 5 5 5 3 3 3 3 4 4 4 3 3 2 2 2 2 2
11 12 11 9 10 10 9 5 0 2 2 4 5 5 4 4 5 6 6 9 11 11 11 11 10 11 10 10 8 7 8 8 7 5 4 4 3 3 3 3 3 3 3 3 3 3 3 2 2
11 12 12 10 9 10 10 6 2 1 2 4 5 4 3 3 3 3 4 5 7 9 10 9 9 10 10 9 8 7 7 7 7 6 5 4 4 4 4 3 3 4 3 3 3 3 3 3 3
Wind_Direction
196 213 218 241 246 178 63 64 67 67 64 59 57 65 63 54 68 91 101 103 110 113 115 113 109 105 101 98 99 103 104 104 103 104 104 105 106 107 109 111 113 116 117 117 116 114 114 115 116
221 226 228 243 260 71 69 67 69 70 74 77 71 70 70 67 77 97 104 111 116 116 116 113 113 108 105 102 101 102 104 105 105 105 105 105 106 108 110 113 116 117 120 122 122 120 120 120 122
249 246 254 238 67 70 75 73 80 83 81 80 79 65 61 78 89 104 115 120 116 112 112 116 117 113 109 106 105 104 104 107 108 108 107 107 108 111 114 116 119 118 120 123 125 124 124 125 128
245 238 241 63 73 75 81 84 86 87 80 78 83 77 72 80 99 113 122 120 114 113 114 119 121 117 114 112 109 108 107 108 109 109 110 109 110 112 115 117 119 120 121 125 126 127 128 129 132
240 268 258 81 83 83 86 89 86 83 81 78 82 88 85 88 105 117 125 123 119 117 118 124 125 123 120 118 115 112 111 111 110 110 111 113 115 115 117 117 120 122 125 129 131 130 131 133 140
254 254 162 82 86 86 83 82 80 81 88 94 97 97 95 111 116 122 120 116 118 120 117 121 127 128 125 123 121 118 117 117 116 115 116 118 119 120 123 125 126 128 130 131 134 137 137 141 150
260 288 92 93 90 89 85 81 81 85 86 92 103 103 112 120 122 123 117 115 117 117 120 125 129 129 129 130 129 126 124 122 121 122 125 127 129 129 130 133 134 135 135 136 140 143 146 155 168
261 303 50 87 92 89 91 86 85 85 85 95 107 108 124 130 132 127 122 120 118 120 125 131 132 132 138 137 136 131 129 128 130 133 137 139 142 143 144 145 143 143 144 145 149 153 162 173 186
274 284 63 82 94 97 98 98 97 94 88 81 80 104 126 135 135 132 131 129 128 128 129 133 133 136 137 135 134 141 142 141 145 150 158 162 163 158 160 145 149 153 154 156 162 168 176 186 201
248 19 67 81 97 101 103 108 115 111 103 99 98 111 127 137 138 140 140 137 136 133 137 136 132 136 132 131 135 152 152 155 166 162 174 185 170 149 139 143 155 162 163 166 175 181 187 204 205
66 60 71 87 96 107 108 107 101 105 111 119 126 132 138 141 145 147 144 142 141 141 140 136 130 128 128 131 143 153 148 154 169 167 179 174 156 141 134 146 156 169 174 181 172 189 205 209 203
68 85 77 88 99 107 107 102 95 88 108 123 132 140 145 149 151 150 146 145 141 138 140 138 130 125 126 126 134 154 156 159 150 155 165 143 135 137 141 149 161 169 176 173 168 191 190 186 201
15 90 102 104 105 105 107 103 99 106 116 125 134 143 148 153 152 148 146 145 140 143 145 137 119 109 107 111 157 151 153 152 141 144 135 127 130 132 138 136 147 172 150 157 169 172 141 143 189
329 55 121 130 129 134 124 118 120 122 129 134 141 150 151 155 153 150 150 147 146 147 144 136 130 129 129 134 161 121 136 120 126 135 142 142 122 125 130 136 161 144 127 130 144 141 135 190 177
297 284 223 165 158 135 123 135 134 138 144 146 150 153 155 158 156 155 156 154 151 148 143 142 144 142 147 157 180 145 137 137 132 128 133 139 128 134 146 147 169 161 154 132 147 136 158 200 180
269 264 243 194 174 139 164 151 147 152 151 156 156 157 160 161 163 160 159 155 151 148 145 153 156 150 156 165 177 156 146 126 125 127 128 134 131 149 161 159 152 147 140 142 157 166 175 168 121
270 250 237 205 193 169 185 166 153 158 156 162 166 162 164 165 169 163 161 157 151 147 147 157 153 150 158 160 163 155 122 119 123 124 129 140 138 150 178 144 125 151 137 157 186 127 133 154 146
279 272 253 227 180 180 205 170 162 169 162 165 175 171 168 170 171 166 162 158 152 149 151 156 152 152 156 153 159 165 139 139 136 130 125 132 142 155 191 156 146 155 124 127 89 90 160 226 218
273 281 285 264 160 245 246 215 178 175 172 172 176 176 172 174 170 168 165 163 159 155 156 160 161 157 159 161 168 170 167 166 154 146 137 145 155 160 180 180 136 170 170 154 139 125 209 244 211
280 284 285 273 248 254 250 239 199 188 190 183 179 173 176 174 170 171 171 170 167 162 163 164 166 165 172 172 176 172 171 168 165 152 143 157 168 169 178 183 180 182 178 170 175 176 222 253 224
275 280 292 299 291 273 266 258 220 200 203 189 182 179 178 179 174 173 176 175 171 170 169 172 172 169 177 173 173 176 161 169 161 156 158 169 172 171 188 169 188 195 195 177 194 198 216 252 268
273 282 290 288 284 282 272 265 233 212 200 186 182 184 181 180 174 174 177 180 179 175 171 167 168 171 176 175 179 178 170 176 181 168 163 170 179 180 178 181 181 220 229 185 215 199 227 235 261
278 293 291 283 278 274 267 265 237 207 201 189 187 186 179 177 176 176 180 182 180 177 173 168 167 173 175 179 184 183 184 185 174 165 161 168 177 183 180 179 181 200 217 248 255 268 256 245 261
277 282 273 266 266 262 261 263 240 201 195 190 188 182 174 175 174 172 175 176 179 177 173 170 170 176 177 181 186 186 191 189 185 179 169 177 176 183 185 181 185 193 205 226 233 249 244 263 290
255 265 266 256 246 260 270 264 242 172 188 174 170 173 175 166 163 166 171 176 179 176 175 173 173 178 180 182 188 187 190 193 194 189 185 188 180 181 184 183 174 184 205 216 219 231 243 252 278
248 255 261 273 279 281 268 260 211 166 149 149 161 164 165 166 165 169 173 171 176 179 177 174 173 177 180 184 191 190 187 194 201 203 199 192 192 180 172 175 171 182 199 210 204 226 226 223 240
259 257 269 275 276 277 268 267 231 169 163 163 157 154 160 166 167 169 167 167 173 182 181 179 173 176 182 185 186 187 190 199 202 193 202 201 196 186 169 170 174 183 196 207 209 220 232 222 232
252 269 273 272 279 278 275 265 244 148 145 147 134 128 138 143 157 161 166 170 172 181 185 184 175 179 181 183 189 190 191 195 199 200 197 196 189 187 172 174 178 185 190 200 216 219 225 236 252
239 247 259 269 272 277 280 284 270 126 168 172 139 128 142 160 161 152 156 170 172 178 185 180 176 176 178 183 186 187 185 188 194 196 194 189 198 192 187 184 184 188 188 188 205 221 211 226 247
252 254 255 261 266 271 275 274 270 193 150 139 119 100 101 104 105 120 141 157 168 175 181 177 175 177 177 179 180 185 184 184 190 189 191 188 191 201 193 186 189 198 187 190 205 221 222 215 228